| time (UTC) | temp F | wind direction | speed MPH | gust MPH | rain 1hr in | rain 24hr in | rain mn in | humidity % | barometer mb |
| 20260503055008 | 71 | 89 | 1.0 | 3.0 | 0.01 | 0.30 | 0.01 | 93 | 1013.8 |
| 20260503054536 | 71 | 79 | 2.0 | 3.0 | 0.00 | 0.29 | 0.00 | 93 | 1013.9 |
| 20260503054009 | 71 | 70 | 1.0 | 2.0 | 0.00 | 0.29 | 0.00 | 93 | 1014.0 |
| 20260503053508 | 71 | 20 | 0.0 | 2.0 | 0.00 | 0.29 | 0.00 | 92 | 1014.1 |
| 20260503053018 | 71 | 4 | 0.0 | 2.0 | 0.00 | 0.29 | 0.00 | 92 | 1014.1 |
| 20260503052507 | 71 | 2 | 1.0 | 2.0 | 0.00 | 0.29 | 0.00 | 92 | 1014.0 |
| 20260503052008 | 71 | 27 | 1.0 | 2.0 | 0.00 | 0.29 | 0.00 | 92 | 1013.8 |
| 20260503051523 | 71 | 324 | 0.0 | 2.0 | 0.00 | 0.29 | 0.00 | 92 | 1013.8 |
| 20260503051007 | 71 | 297 | 0.0 | 2.0 | 0.00 | 0.29 | 0.00 | 92 | 1013.9 |
| 20260503050507 | 71 | 286 | 1.0 | 3.0 | 0.00 | 0.29 | 0.00 | 92 | 1013.9 |
| 20260503050029 | 71 | 253 | 2.0 | 3.0 | 0.00 | 0.29 | 0.00 | 93 | 1014.1 |
| 20260503045511 | 71 | 291 | 1.0 | 3.0 | 0.00 | 0.29 | 0.00 | 93 | 1014.3 |
| 20260503045012 | 71 | 295 | 2.0 | 3.0 | 0.00 | 0.29 | 0.00 | 92 | 1014.1 |
| 20260503044527 | 71 | 249 | 1.0 | 2.0 | 0.00 | 0.29 | 0.00 | 92 | 1014.0 |
| 20260503044009 | 71 | 274 | 1.0 | 5.0 | 0.00 | 0.29 | 0.00 | 92 | 1014.0 |
| 20260503043507 | 71 | 253 | 1.0 | 5.0 | 0.00 | 0.29 | 0.00 | 92 | 1013.9 |
| 20260503043029 | 70 | 250 | 2.0 | 4.0 | 0.00 | 0.29 | 0.00 | 92 | 1013.9 |
| 20260503042511 | 70 | 262 | 1.0 | 3.0 | 0.00 | 0.29 | 0.00 | 92 | 1014.0 |
| 20260503042007 | 70 | 268 | 1.0 | 3.0 | 0.00 | 0.29 | 0.00 | 92 | 1014.1 |
| 20260503041522 | 70 | 256 | 2.0 | 3.0 | 0.00 | 0.29 | 0.00 | 92 | 1014.0 |
| 20260503041008 | 70 | 228 | 2.0 | 3.0 | 0.00 | 0.29 | 0.00 | 92 | 1013.8 |
| 20260503040506 | 70 | 251 | 2.0 | 3.0 | 0.00 | 0.29 | 0.00 | 92 | 1013.8 |
| 20260503040017 | 70 | 232 | 1.0 | 3.0 | 0.00 | 0.29 | 0.00 | 92 | 1013.9 |
| 20260503035503 | 70 | 264 | 1.0 | 3.0 | 0.00 | 0.29 | 0.29 | 92 | 1013.9 |
| 20260503035004 | 70 | 282 | 1.0 | 3.0 | 0.00 | 0.29 | 0.29 | 92 | 1013.8 |
| 20260503034511 | 70 | 278 | 1.0 | 3.0 | 0.00 | 0.29 | 0.29 | 92 | 1013.7 |
| 20260503034005 | 70 | 286 | 1.0 | 3.0 | 0.00 | 0.29 | 0.29 | 92 | 1013.6 |
| 20260503033505 | 70 | 262 | 1.0 | 4.0 | 0.00 | 0.29 | 0.29 | 92 | 1013.6 |
| 20260503033013 | 70 | 264 | 1.0 | 4.0 | 0.00 | 0.29 | 0.29 | 92 | 1013.5 |
| 20260503032503 | 70 | 270 | 2.0 | 4.0 | 0.00 | 0.29 | 0.29 | 92 | 1013.3 |
| 20260503032007 | 70 | 301 | 2.0 | 4.0 | 0.00 | 0.29 | 0.29 | 92 | 1013.3 |
| 20260503031519 | 70 | 268 | 3.0 | 4.0 | 0.00 | 0.29 | 0.29 | 92 | 1013.1 |
| 20260503031008 | 70 | 290 | 2.0 | 3.0 | 0.00 | 0.29 | 0.29 | 92 | 1012.9 |
| 20260503030507 | 70 | 291 | 1.0 | 3.0 | 0.00 | 0.29 | 0.29 | 92 | 1012.7 |
| 20260503030025 | 71 | 285 | 1.0 | 4.0 | 0.00 | 0.29 | 0.29 | 92 | 1012.5 |
| 20260503025503 | 71 | 246 | 1.0 | 4.0 | 0.00 | 0.29 | 0.29 | 92 | 1012.5 |
| 20260503025010 | 71 | 240 | 2.0 | 5.0 | 0.00 | 0.29 | 0.29 | 93 | 1012.7 |
| 20260503024508 | 71 | 262 | 2.0 | 5.0 | 0.00 | 0.29 | 0.29 | 93 | 1013.0 |
| 20260503024004 | 71 | 266 | 2.0 | 4.0 | 0.00 | 0.29 | 0.29 | 93 | 1013.1 |
| 20260503023503 | 71 | 272 | 1.0 | 4.0 | 0.00 | 0.29 | 0.29 | 93 | 1012.9 |
| 20260503023009 | 71 | 223 | 1.0 | 4.0 | 0.00 | 0.29 | 0.29 | 93 | 1012.6 |
| 20260503022508 | 71 | 256 | 1.0 | 3.0 | 0.00 | 0.29 | 0.29 | 93 | 1012.7 |
| 20260503022007 | 71 | 249 | 1.0 | 4.0 | 0.00 | 0.29 | 0.29 | 93 | 1012.8 |
| 20260503021519 | 71 | 276 | 1.0 | 4.0 | 0.00 | 0.29 | 0.29 | 93 | 1012.9 |
| 20260503021007 | 71 | 242 | 2.0 | 5.0 | 0.00 | 0.29 | 0.29 | 93 | 1013.0 |
| 20260503020507 | 71 | 260 | 1.0 | 5.0 | 0.00 | 0.29 | 0.29 | 93 | 1013.0 |
| 20260503020021 | 71 | 242 | 3.0 | 5.0 | 0.00 | 0.29 | 0.29 | 93 | 1012.9 |
| 20260503015508 | 71 | 272 | 2.0 | 5.0 | 0.00 | 0.29 | 0.29 | 93 | 1013.0 |
| 20260503015010 | 71 | 254 | 3.0 | 5.0 | 0.00 | 0.29 | 0.29 | 93 | 1012.9 |
| 20260503014507 | 71 | 237 | 2.0 | 5.0 | 0.00 | 0.29 | 0.29 | 93 | 1012.8 |
| 20260503014003 | 71 | 253 | 2.0 | 4.0 | 0.00 | 0.29 | 0.29 | 93 | 1012.7 |
| 20260503013505 | 71 | 327 | 2.0 | 3.0 | 0.00 | 0.29 | 0.29 | 93 | 1012.8 |
| 20260503013009 | 71 | 260 | 1.0 | 2.0 | 0.00 | 0.29 | 0.29 | 93 | 1012.5 |
| 20260503012505 | 71 | 287 | 1.0 | 2.0 | 0.00 | 0.29 | 0.29 | 93 | 1012.2 |
| 20260503012006 | 71 | 178 | 0.0 | 2.0 | 0.00 | 0.29 | 0.29 | 93 | 1011.5 |
| 20260503011525 | 71 | 152 | 1.0 | 2.0 | 0.00 | 0.29 | 0.29 | 93 | 1011.2 |
| 20260503011004 | 71 | 150 | 0.0 | 2.0 | 0.00 | 0.29 | 0.29 | 93 | 1011.2 |
| 20260503010507 | 71 | 198 | 0.0 | 2.0 | 0.00 | 0.29 | 0.29 | 93 | 1011.4 |
| 20260503010020 | 71 | 204 | 0.0 | 2.0 | 0.00 | 0.29 | 0.29 | 92 | 1011.3 |
| 20260503005511 | 71 | 239 | 0.0 | 2.0 | 0.00 | 0.29 | 0.29 | 92 | 1011.3 |
| 20260503005011 | 71 | 272 | 0.0 | 2.0 | 0.00 | 0.29 | 0.29 | 92 | 1011.5 |
| 20260503004522 | 71 | 272 | 0.0 | 2.0 | 0.01 | 0.29 | 0.29 | 92 | 1011.7 |
| 20260503004009 | 71 | 282 | 1.0 | 3.0 | 0.01 | 0.29 | 0.29 | 92 | 1011.7 |
| 20260503003503 | 71 | 269 | 1.0 | 4.0 | 0.01 | 0.29 | 0.29 | 92 | 1011.5 |
| 20260503003007 | 71 | 276 | 2.0 | 5.0 | 0.01 | 0.29 | 0.29 | 92 | 1011.4 |
| 20260503002504 | 71 | 274 | 0.0 | 7.0 | 0.02 | 0.29 | 0.29 | 92 | 1010.9 |
| 20260503002004 | 71 | 239 | 1.0 | 8.0 | 0.02 | 0.29 | 0.29 | 92 | 1011.0 |
| 20260503001510 | 71 | 242 | 4.0 | 8.0 | 0.02 | 0.29 | 0.29 | 92 | 1011.1 |
| 20260503001005 | 71 | 252 | 3.0 | 7.0 | 0.03 | 0.29 | 0.29 | 92 | 1011.1 |
| 20260503000506 | 71 | 296 | 4.0 | 9.0 | 0.03 | 0.29 | 0.29 | 92 | 1011.4 |
| 20260503000014 | 71 | 292 | 3.0 | 9.0 | 0.03 | 0.29 | 0.29 | 92 | 1011.8 |
| 20260502235504 | 71 | 271 | 5.0 | 9.0 | 0.03 | 0.29 | 0.29 | 92 | 1011.1 |
| 20260502235008 | 71 | 275 | 4.0 | 8.0 | 0.03 | 0.29 | 0.29 | 92 | 1010.3 |
| 20260502234533 | 71 | 244 | 3.0 | 8.0 | 0.02 | 0.28 | 0.28 | 92 | 1009.3 |
| 20260502234008 | 71 | 202 | 3.0 | 6.0 | 0.02 | 0.28 | 0.28 | 92 | 1009.8 |
| 20260502233508 | 71 | 216 | 2.0 | 4.0 | 0.02 | 0.28 | 0.28 | 92 | 1010.1 |
| 20260502233026 | 71 | 179 | 2.0 | 4.0 | 0.03 | 0.28 | 0.28 | 92 | 1010.3 |
| 20260502232503 | 71 | 229 | 1.0 | 4.0 | 0.02 | 0.27 | 0.27 | 91 | 1011.0 |
| 20260502232005 | 71 | 252 | 1.0 | 4.0 | 0.03 | 0.27 | 0.27 | 91 | 1011.1 |
| 20260502231511 | 71 | 249 | 1.0 | 3.0 | 0.04 | 0.27 | 0.27 | 91 | 1010.9 |
| 20260502231009 | 71 | 276 | 1.0 | 5.0 | 0.04 | 0.26 | 0.26 | 91 | 1010.8 |
| 20260502230505 | 71 | 267 | 1.0 | 6.0 | 0.05 | 0.26 | 0.26 | 91 | 1010.8 |
| 20260502230019 | 72 | 264 | 2.0 | 6.0 | 0.06 | 0.26 | 0.26 | 91 | 1010.9 |
| 20260502225511 | 72 | 185 | 1.0 | 5.0 | 0.07 | 0.26 | 0.26 | 91 | 1010.7 |
| 20260502225007 | 72 | 266 | 3.0 | 5.0 | 0.07 | 0.26 | 0.26 | 91 | 1010.9 |
| 20260502224530 | 72 | 231 | 3.0 | 5.0 | 0.08 | 0.26 | 0.26 | 91 | 1010.9 |
| 20260502224008 | 72 | 238 | 2.0 | 2.0 | 0.08 | 0.26 | 0.26 | 91 | 1010.7 |
| 20260502223508 | 72 | 51 | 0.0 | 2.0 | 0.08 | 0.26 | 0.26 | 91 | 1010.3 |
| 20260502223021 | 72 | 51 | 0.0 | 2.0 | 0.07 | 0.25 | 0.25 | 90 | 1010.5 |
| 20260502222508 | 72 | 51 | 0.0 | 2.0 | 0.07 | 0.25 | 0.25 | 90 | 1010.6 |
| 20260502222012 | 72 | 336 | 0.0 | 2.0 | 0.07 | 0.24 | 0.24 | 90 | 1010.6 |
| 20260502221526 | 72 | 336 | 0.0 | 2.0 | 0.07 | 0.23 | 0.23 | 90 | 1011.0 |
| 20260502221004 | 72 | 11 | 0.0 | 2.0 | 0.07 | 0.22 | 0.22 | 90 | 1010.9 |
| 20260502220506 | 72 | 169 | 0.0 | 3.0 | 0.07 | 0.21 | 0.21 | 90 | 1010.9 |
| 20260502220021 | 72 | 272 | 1.0 | 3.0 | 0.06 | 0.20 | 0.20 | 90 | 1011.2 |
| 20260502215508 | 72 | 270 | 1.0 | 3.0 | 0.05 | 0.19 | 0.19 | 90 | 1011.2 |
| 20260502215006 | 72 | 235 | 0.0 | 4.0 | 0.05 | 0.19 | 0.19 | 89 | 1010.7 |
| 20260502214516 | 72 | 216 | 1.0 | 4.0 | 0.04 | 0.18 | 0.18 | 89 | 1010.7 |
| 20260502214009 | 72 | 229 | 2.0 | 4.0 | 0.04 | 0.18 | 0.18 | 89 | 1010.4 |
| 20260502213506 | 72 | 208 | 0.0 | 3.0 | 0.05 | 0.18 | 0.18 | 89 | 1010.4 |
| 20260502213030 | 72 | 149 | 1.0 | 3.0 | 0.05 | 0.18 | 0.18 | 88 | 1010.4 |
| 20260502212508 | 73 | 239 | 1.0 | 2.0 | 0.05 | 0.18 | 0.18 | 87 | 1010.7 |
| 20260502212013 | 73 | 240 | 0.0 | 4.0 | 0.17 | 0.17 | 0.17 | 87 | 1010.2 |
| 20260502211524 | 73 | 305 | 1.0 | 5.0 | 0.16 | 0.16 | 0.16 | 87 | 1010.6 |
| 20260502211011 | 74 | 316 | 3.0 | 6.0 | 0.15 | 0.15 | 0.15 | 87 | 1010.7 |
| 20260502210510 | 74 | 273 | 2.0 | 6.0 | 0.14 | 0.14 | 0.14 | 86 | 1010.7 |
| 20260502210012 | 74 | 309 | 2.0 | 5.0 | 0.14 | 0.14 | 0.14 | 86 | 1010.7 |
| 20260502205503 | 75 | 318 | 1.0 | 5.0 | 0.14 | 0.14 | 0.14 | 85 | 1010.7 |
| 20260502205007 | 75 | 358 | 0.0 | 3.0 | 0.14 | 0.14 | 0.14 | 84 | 1010.5 |
| 20260502204515 | 76 | 18 | 1.0 | 4.0 | 0.14 | 0.14 | 0.14 | 83 | 1010.6 |
| 20260502204008 | 76 | 22 | 1.0 | 5.0 | 0.14 | 0.14 | 0.14 | 83 | 1010.4 |
| 20260502203507 | 77 | 295 | 1.0 | 5.0 | 0.13 | 0.13 | 0.13 | 82 | 1010.4 |
| 20260502203020 | 78 | 334 | 1.0 | 8.0 | 0.13 | 0.13 | 0.13 | 80 | 1010.4 |
| 20260502202506 | 79 | 18 | 2.0 | 14.0 | 0.13 | 0.13 | 0.13 | 78 | 1010.5 |
| 20260502202010 | 81 | 353 | 6.0 | 14.0 | 0.00 | 0.00 | 0.00 | 73 | 1010.5 |
| 20260502201535 | 82 | 43 | 4.0 | 11.0 | 0.00 | 0.00 | 0.00 | 77 | 1010.3 |
| 20260502201009 | 83 | 310 | 1.0 | 5.0 | 0.00 | 0.00 | 0.00 | 77 | 1010.0 |
| 20260502200507 | 83 | 302 | 2.0 | 8.0 | 0.00 | 0.00 | 0.00 | 77 | 1010.1 |
| 20260502200026 | 83 | 293 | 4.0 | 10.0 | 0.00 | 0.00 | 0.00 | 77 | 1010.1 |
| 20260502195507 | 83 | 300 | 3.0 | 10.0 | 0.00 | 0.00 | 0.00 | 77 | 1010.3 |
| 20260502195003 | 83 | 294 | 4.0 | 8.0 | 0.00 | 0.00 | 0.00 | 77 | 1010.1 |
| 20260502194527 | 82 | 319 | 3.0 | 9.0 | 0.00 | 0.00 | 0.00 | 78 | 1010.1 |
| 20260502194005 | 82 | 294 | 4.0 | 11.0 | 0.00 | 0.00 | 0.00 | 77 | 1010.1 |
| 20260502193507 | 82 | 296 | 4.0 | 11.0 | 0.00 | 0.00 | 0.00 | 77 | 1010.2 |
| 20260502193032 | 82 | 287 | 3.0 | 8.0 | 0.00 | 0.00 | 0.00 | 77 | 1010.5 |
| 20260502192512 | 82 | 302 | 4.0 | 8.0 | 0.00 | 0.00 | 0.00 | 75 | 1010.6 |
| 20260502192007 | 82 | 8 | 3.0 | 9.0 | 0.00 | 0.00 | 0.00 | 75 | 1010.7 |
| 20260502191530 | 83 | 295 | 5.0 | 12.0 | 0.00 | 0.00 | 0.00 | 75 | 1010.7 |
| 20260502191006 | 83 | 278 | 5.0 | 12.0 | 0.00 | 0.00 | 0.00 | 73 | 1010.7 |
| 20260502190503 | 83 | 329 | 5.0 | 10.0 | 0.00 | 0.00 | 0.00 | 73 | 1010.7 |
| 20260502190006 | 84 | 9 | 5.0 | 10.0 | 0.00 | 0.00 | 0.00 | 73 | 1010.7 |
| 20260502185504 | 84 | 298 | 5.0 | 10.0 | 0.00 | 0.00 | 0.00 | 72 | 1010.6 |
| 20260502185004 | 84 | 298 | 3.0 | 12.0 | 0.00 | 0.00 | 0.00 | 72 | 1010.6 |
| 20260502184517 | 85 | 270 | 5.0 | 13.0 | 0.00 | 0.00 | 0.00 | 70 | 1010.7 |
| 20260502184003 | 85 | 276 | 5.0 | 13.0 | 0.00 | 0.00 | 0.00 | 70 | 1010.7 |
| 20260502183511 | 85 | 308 | 5.0 | 13.0 | 0.00 | 0.00 | 0.00 | 68 | 1010.8 |
| 20260502183018 | 86 | 289 | 7.0 | 13.0 | 0.00 | 0.00 | 0.00 | 67 | 1010.9 |
| 20260502182511 | 86 | 276 | 7.0 | 12.0 | 0.00 | 0.00 | 0.00 | 66 | 1010.8 |
| 20260502182008 | 87 | 2 | 8.0 | 13.0 | 0.00 | 0.00 | 0.00 | 65 | 1010.8 |
| 20260502181521 | 87 | 318 | 8.0 | 14.0 | 0.00 | 0.00 | 0.00 | 63 | 1010.8 |
| 20260502181008 | 87 | 283 | 8.0 | 17.0 | 0.00 | 0.00 | 0.00 | 63 | 1010.8 |
| 20260502180509 | 88 | 285 | 8.0 | 17.0 | 0.00 | 0.00 | 0.00 | 63 | 1010.9 |
| 20260502170510 | 88 | 283 | 9.0 | 15.0 | 0.00 | 0.00 | 0.00 | 64 | 1011.1 |
| 20260502164004 | 88 | 292 | 7.0 | 17.0 | 0.00 | 0.00 | 0.00 | 64 | 1011.2 |
| 20260502163504 | 89 | 293 | 11.0 | 17.0 | 0.00 | 0.00 | 0.00 | 63 | 1011.1 |
| 20260502163036 | 89 | 301 | 10.0 | 18.0 | 0.00 | 0.00 | 0.00 | 63 | 1011.1 |
| 20260502162505 | 89 | 326 | 9.0 | 22.0 | 0.00 | 0.00 | 0.00 | 63 | 1011.2 |
| 20260502162006 | 89 | 301 | 8.0 | 22.0 | 0.00 | 0.00 | 0.00 | 63 | 1011.4 |
| 20260502161517 | 89 | 341 | 12.0 | 20.0 | 0.00 | 0.00 | 0.00 | 62 | 1011.4 |
| 20260502161008 | 89 | 311 | 7.0 | 18.0 | 0.00 | 0.00 | 0.00 | 64 | 1011.4 |
| 20260502160508 | 89 | 310 | 8.0 | 18.0 | 0.00 | 0.00 | 0.00 | 62 | 1011.5 |
| 20260502152013 | 87 | 283 | 6.0 | 18.0 | 0.00 | 0.00 | 0.00 | 68 | 1011.2 |
| 20260502151526 | 87 | 280 | 9.0 | 19.0 | 0.00 | 0.00 | 0.00 | 68 | 1011.3 |
| 20260502151006 | 86 | 241 | 9.0 | 19.0 | 0.00 | 0.00 | 0.00 | 68 | 1011.1 |
| 20260502150506 | 86 | 292 | 10.0 | 20.0 | 0.00 | 0.00 | 0.00 | 69 | 1011.1 |
| 20260502130505 | 75 | 233 | 4.0 | 8.0 | 0.00 | 0.00 | 0.00 | 85 | 1010.2 |
| 20260502123502 | 73 | 233 | 1.0 | 5.0 | 0.00 | 0.00 | 0.00 | 86 | 1010.3 |
| 20260502123003 | 73 | 224 | 2.0 | 5.0 | 0.00 | 0.00 | 0.00 | 86 | 1010.3 |
| 20260502122504 | 72 | 198 | 2.0 | 5.0 | 0.00 | 0.00 | 0.00 | 87 | 1010.3 |
| 20260502122004 | 72 | 206 | 1.0 | 4.0 | 0.00 | 0.00 | 0.00 | 88 | 1010.3 |
| 20260502121512 | 71 | 237 | 0.0 | 3.0 | 0.00 | 0.00 | 0.00 | 90 | 1010.3 |
| 20260502121005 | 71 | 258 | 1.0 | 3.0 | 0.00 | 0.00 | 0.00 | 89 | 1010.4 |
| 20260502120505 | 71 | 180 | 1.0 | 2.0 | 0.00 | 0.00 | 0.00 | 90 | 1010.3 |
| 20260502115504 | 70 | 196 | 1.0 | 2.0 | 0.00 | 0.00 | 0.00 | 92 | 1010.2 |
| 20260502115004 | 69 | 179 | 1.0 | 3.0 | 0.00 | 0.00 | 0.00 | 93 | 1010.2 |
| 20260502114517 | 68 | 185 | 1.0 | 3.0 | 0.00 | 0.00 | 0.00 | 93 | 1010.2 |
| 20260502114005 | 68 | 207 | 1.0 | 3.0 | 0.00 | 0.00 | 0.00 | 93 | 1010.1 |
| 20260502113508 | 68 | 222 | 1.0 | 3.0 | 0.00 | 0.00 | 0.00 | 93 | 1010.1 |
| 20260502113023 | 68 | 210 | 1.0 | 2.0 | 0.00 | 0.00 | 0.00 | 93 | 1010.1 |
| 20260502112504 | 68 | 186 | 1.0 | 2.0 | 0.00 | 0.00 | 0.00 | 93 | 1010.0 |
| 20260502112004 | 68 | 147 | 1.0 | 3.0 | 0.00 | 0.00 | 0.00 | 93 | 1010.0 |
| 20260502111508 | 68 | 190 | 1.0 | 3.0 | 0.00 | 0.00 | 0.00 | 93 | 1009.9 |
| 20260502111004 | 67 | 227 | 1.0 | 4.0 | 0.00 | 0.00 | 0.00 | 93 | 1009.9 |
| 20260502110505 | 68 | 214 | 2.0 | 4.0 | 0.00 | 0.00 | 0.00 | 93 | 1009.8 |
| 20260502110014 | 68 | 224 | 1.0 | 5.0 | 0.00 | 0.00 | 0.00 | 93 | 1009.8 |
| 20260502105505 | 68 | 225 | 1.0 | 5.0 | 0.00 | 0.00 | 0.00 | 93 | 1009.8 |
| 20260502105004 | 68 | 199 | 1.0 | 3.0 | 0.00 | 0.00 | 0.00 | 93 | 1009.9 |
| 20260502104518 | 68 | 190 | 1.0 | 6.0 | 0.00 | 0.00 | 0.00 | 93 | 1009.9 |
| 20260502104007 | 68 | 176 | 1.0 | 6.0 | 0.00 | 0.00 | 0.00 | 93 | 1009.6 |
| 20260502103510 | 68 | 210 | 3.0 | 6.0 | 0.00 | 0.00 | 0.00 | 93 | 1009.5 |
| 20260502103022 | 68 | 215 | 2.0 | 5.0 | 0.00 | 0.00 | 0.00 | 93 | 1009.5 |
| 20260502102511 | 68 | 220 | 2.0 | 4.0 | 0.00 | 0.00 | 0.00 | 93 | 1009.6 |
| 20260502102010 | 68 | 206 | 1.0 | 5.0 | 0.00 | 0.00 | 0.00 | 93 | 1009.6 |
| 20260502101503 | 68 | 199 | 2.0 | 5.0 | 0.00 | 0.00 | 0.00 | 93 | 1009.6 |
| 20260502101003 | 68 | 245 | 1.0 | 3.0 | 0.00 | 0.00 | 0.00 | 93 | 1009.7 |
| 20260502100503 | 68 | 184 | 1.0 | 4.0 | 0.00 | 0.00 | 0.00 | 93 | 1009.7 |
| 20260502091526 | 69 | 196 | 0.0 | 2.0 | 0.00 | 0.00 | 0.00 | 92 | 1010.0 |
| 20260502091010 | 69 | 204 | 0.0 | 2.0 | 0.00 | 0.00 | 0.00 | 92 | 1010.0 |
| 20260502090509 | 69 | 204 | 0.0 | 2.0 | 0.00 | 0.00 | 0.00 | 92 | 1010.0 |
| 20260502071526 | 69 | 272 | 0.0 | 0.0 | 0.00 | 0.00 | 0.00 | 91 | 1010.5 |
| 20260502071014 | 69 | 272 | 0.0 | 0.0 | 0.00 | 0.00 | 0.00 | 91 | 1010.6 |
| 20260502070513 | 69 | 272 | 0.0 | 0.0 | 0.00 | 0.00 | 0.00 | 91 | 1010.5 |
| 20260502070036 | 69 | 272 | 0.0 | 0.0 | 0.00 | 0.00 | 0.00 | 91 | 1010.6 |
| 20260502065509 | 69 | 272 | 0.0 | 0.0 | 0.00 | 0.00 | 0.00 | 91 | 1010.6 |
| 20260502065010 | 70 | 272 | 0.0 | 0.0 | 0.00 | 0.00 | 0.00 | 91 | 1010.6 |
| 20260502064536 | 70 | 272 | 0.0 | 0.0 | 0.00 | 0.00 | 0.00 | 91 | 1010.4 |
| 20260502064005 | 70 | 272 | 0.0 | 0.0 | 0.00 | 0.00 | 0.00 | 91 | 1010.6 |